sat.trackr.live / text

‹ back to catalog

STARLINK-34948

NORAD 65191 · 2025-175T

PAYLOAD ACTIVE UNKNOWN

§ Identity

Operator
Country
US
Launch date
2025-08-14
Launch site
AFWTR
Launch vehicle
Mass (kg)
RCS (m²)

Purposes: comms

External: N2YO · Heavens-Above · Gunter

§ Orbital elements

Epoch: 2026-09-20T13:15:12.571776Z

Period
93.91 min
Inclination
97.2844°
Eccentricity
0.0001929
Mean motion
15.33449467 rev/d
Perigee alt
464.2 km
Apogee alt
466.9 km
Semi-major
6,843.7 km
B*
5.1012e-4
RAAN
132.5728°
Arg perigee
87.0675°
Mean anomaly
273.0788°
Rev number
6,214

§ Raw data

STARLINK-349481 65191U 25175T   26263.55222884  .00016432  00000+0  51012-3 0  99942 65191  97.2844 132.5728 0001929  87.0675 273.0788 15.33449467 62144

JSON: /api/v1/satellites/65191 · /tle

For live sub-satellite position, see the globe view (requires WebGL).

§ Visibility from observer

Set your observer location to see the next 7 days of passes ≥ 10°. The values pass through the URL so the page stays shareable.

No JS? Fill the form by hand. The geolocation button needs JavaScript.